Location: Barruelo
(41.2448°N, 3.8231°W)
Time: 04:57:12
(UTC+00:00)

Cosmos-2242 - Pass Details

Date: 11 December 2025
Orbit: 566 x 591 km, 82.5° (Epoch: 13 January)

Event Time Altitude Azimuth Distance (km) Brightness Sun altitude
Rises 18:28:56 0° 182° (S) 2,804 6.7 -18.6°
Reaches altitude 10° 18:31:07 10° 181° (S) 1,911 5.7 -19.0°
Maximum altitude 18:35:20 76° 97° (E) 613 2.8 -19.8°
Enters shadow 18:37:25 29° 15° (NNE) 1,090 4.0 -20.1°
